Location: Newark
(52.3500°N, 175.9667°E)
Time: 21:41:19
(UTC+00:00)

ISS - Pass Details

Date: 08 March 2021
Orbit: 418 x 422 km, 51.6° (Epoch: 16 April)

Event Time Altitude Azimuth Distance (km) Brightness Sun altitude
Exits shadow 17:06:49 36° 231° (SW) 686 -3.2 -15.8°
Maximum altitude 17:07:24 39° 204° (SSW) 640 -3.2 -15.7°
Drops below altitude 10° 17:10:34 10° 134° (SE) 1,496 -0.5 -15.2°
Sets 17:12:43 0° 126° (SE) 2,357 0.7 -14.9°
